Location: *
(48.4333°N, 5.0333°W)
Time: 02:38:59
(UTC+00:00)

RESURS DK-1 - Pass Details

Date: 09 April 2020
Orbit: 557 x 561 km, 69.9° (Epoch: 02 June)

Event Time Altitude Azimuth Distance (km) Brightness Sun altitude
Rises 20:42:57 0° 336° (NNW) 2,762 6.9 -16.0°
Reaches altitude 10° 20:45:21 10° 346° (NNW) 1,861 5.7 -16.4°
Maximum altitude 20:49:07 32° 51° (NE) 969 3.4 -16.9°
Enters shadow 20:50:16 28° 83° (E) 1,083 3.4 -17.0°
